Time,TemperatureF,DewpointF,PressureIn,WindDirection,WindDirectionDegrees,WindSpeedMPH,WindSpeedGustMPH,Humidity,HourlyPrecipIn,Conditions,Clouds,dailyrainin,SoftwareType,DateUTC
2013-01-11 00:09:00,35.5,35.0,29.92,SE,135,1.0,4.0,97,0.06,,,0.01,weatherlink.com 1.10,2013-01-11 06:09:00,
2013-01-11 00:24:00,35.7,35.0,29.91,ESE,121,0.0,3.0,97,0.03,,,0.01,weatherlink.com 1.10,2013-01-11 06:24:00,
2013-01-11 00:39:00,35.9,35.0,29.90,East,98,1.0,3.0,97,0.02,,,0.02,weatherlink.com 1.10,2013-01-11 06:39:00,
2013-01-11 00:54:00,36.0,35.0,29.90,SE,139,1.0,3.0,97,0.03,,,0.03,weatherlink.com 1.10,2013-01-11 06:54:00,
2013-01-11 01:09:00,36.1,35.0,29.89,South,181,0.0,4.0,97,0.02,,,0.03,weatherlink.com 1.10,2013-01-11 07:09:00,
2013-01-11 01:24:00,36.7,36.0,29.88,East,97,1.0,5.0,97,0.02,,,0.03,weatherlink.com 1.10,2013-01-11 07:24:00,
2013-01-11 01:39:00,36.9,36.0,29.86,SE,126,0.0,3.0,97,0.01,,,0.03,weatherlink.com 1.10,2013-01-11 07:39:00,
2013-01-11 01:54:00,36.8,36.0,29.84,ESE,109,2.0,3.0,97,0.00,,,0.03,weatherlink.com 1.10,2013-01-11 07:54:00,
2013-01-11 02:09:00,36.9,36.0,29.84,SE,140,2.0,3.0,97,0.01,,,0.04,weatherlink.com 1.10,2013-01-11 08:09:00,
2013-01-11 02:25:00,36.9,36.0,29.83,SE,136,2.0,4.0,97,0.01,,,0.04,weatherlink.com 1.10,2013-01-11 08:25:00,
2013-01-11 02:40:00,36.8,36.0,29.81,East,86,2.0,3.0,97,0.01,,,0.04,weatherlink.com 1.10,2013-01-11 08:40:00,
2013-01-11 02:55:00,36.8,36.0,29.81,East,89,2.0,3.0,97,0.02,,,0.05,weatherlink.com 1.10,2013-01-11 08:55:00,
2013-01-11 03:10:00,36.6,36.0,29.80,ESE,112,0.0,3.0,97,0.02,,,0.06,weatherlink.com 1.10,2013-01-11 09:10:00,
2013-01-11 03:25:00,36.7,36.0,29.79,ESE,103,2.0,3.0,97,0.02,,,0.06,weatherlink.com 1.10,2013-01-11 09:25:00,
2013-01-11 03:40:00,36.9,36.0,29.76,ESE,108,0.0,3.0,97,0.02,,,0.06,weatherlink.com 1.10,2013-01-11 09:40:00,
2013-01-11 03:55:00,37.2,37.0,29.75,ESE,108,0.0,3.0,97,0.02,,,0.07,weatherlink.com 1.10,2013-01-11 09:55:00,
2013-01-11 04:10:00,37.1,36.0,29.73,ESE,108,0.0,2.0,97,0.01,,,0.07,weatherlink.com 1.10,2013-01-11 10:10:00,
2013-01-11 04:25:00,37.1,36.0,29.72,ESE,120,0.0,3.0,97,0.02,,,0.08,weatherlink.com 1.10,2013-01-11 10:25:00,
2013-01-11 04:40:00,37.0,36.0,29.71,ESE,120,0.0,1.0,97,0.02,,,0.08,weatherlink.com 1.10,2013-01-11 10:40:00,
2013-01-11 04:55:00,37.6,37.0,29.71,ESE,111,0.0,2.0,98,0.01,,,0.08,weatherlink.com 1.10,2013-01-11 10:55:00,
2013-01-11 05:10:00,37.6,37.0,29.71,ESE,111,0.0,1.0,98,0.01,,,0.08,weatherlink.com 1.10,2013-01-11 11:10:00,
2013-01-11 05:25:00,37.5,37.0,29.70,ESE,111,0.0,0.0,98,0.00,,,0.08,weatherlink.com 1.10,2013-01-11 11:25:00,
2013-01-11 05:40:00,37.6,37.0,29.70,ESE,111,0.0,0.0,98,0.01,,,0.09,weatherlink.com 1.10,2013-01-11 11:40:00,
2013-01-11 05:55:00,37.7,37.0,29.70,ESE,111,0.0,1.0,98,0.01,,,0.09,weatherlink.com 1.10,2013-01-11 11:55:00,
2013-01-11 06:10:00,37.5,37.0,29.70,ESE,111,0.0,0.0,98,0.01,,,0.09,weatherlink.com 1.10,2013-01-11 12:10:00,
2013-01-11 06:25:00,37.5,37.0,29.70,ESE,111,0.0,0.0,98,0.01,,,0.09,weatherlink.com 1.10,2013-01-11 12:25:00,
2013-01-11 06:40:00,37.5,37.0,29.70,ESE,111,0.0,0.0,98,0.01,,,0.10,weatherlink.com 1.10,2013-01-11 12:40:00,
2013-01-11 06:55:00,37.7,37.0,29.70,ESE,111,0.0,0.0,98,0.02,,,0.11,weatherlink.com 1.10,2013-01-11 12:55:00,
2013-01-11 07:10:00,37.8,37.0,29.71,ESE,111,0.0,0.0,98,0.02,,,0.11,weatherlink.com 1.10,2013-01-11 13:10:00,
2013-01-11 07:25:00,37.5,37.0,29.71,ESE,111,0.0,0.0,98,0.02,,,0.11,weatherlink.com 1.10,2013-01-11 13:25:00,
2013-01-11 07:40:00,37.9,37.0,29.72,ESE,111,0.0,0.0,98,0.02,,,0.12,weatherlink.com 1.10,2013-01-11 13:40:00,
2013-01-11 07:55:00,38.4,38.0,29.73,ESE,111,0.0,1.0,98,0.01,,,0.12,weatherlink.com 1.10,2013-01-11 13:55:00,
2013-01-11 08:10:00,38.4,38.0,29.73,ESE,111,2.0,2.0,98,0.01,,,0.12,weatherlink.com 1.10,2013-01-11 14:10:00,
2013-01-11 08:25:00,40.5,40.0,29.72,SSW,212,2.0,4.0,98,0.01,,,0.12,weatherlink.com 1.10,2013-01-11 14:25:00,
2013-01-11 08:40:00,41.6,41.0,29.71,SW,214,3.0,6.0,98,0.01,,,0.13,weatherlink.com 1.10,2013-01-11 14:40:00,
2013-01-11 08:55:00,41.9,41.0,29.70,NW,314,1.0,3.0,98,0.01,,,0.13,weatherlink.com 1.10,2013-01-11 14:55:00,
2013-01-11 09:10:00,42.0,42.0,29.70,WSW,242,1.0,3.0,98,0.01,,,0.13,weatherlink.com 1.10,2013-01-11 15:10:00,
2013-01-11 09:25:00,42.1,42.0,29.70,SW,228,0.0,2.0,98,0.01,,,0.13,weatherlink.com 1.10,2013-01-11 15:25:00,
2013-01-11 09:40:00,42.4,42.0,29.70,SW,228,0.0,3.0,98,0.01,,,0.14,weatherlink.com 1.10,2013-01-11 15:40:00,
2013-01-11 09:55:00,42.9,42.0,29.69,SW,228,0.0,3.0,98,0.01,,,0.14,weatherlink.com 1.10,2013-01-11 15:55:00,
2013-01-11 10:10:00,42.9,42.0,29.71,SSW,200,1.0,6.0,98,0.01,,,0.14,weatherlink.com 1.10,2013-01-11 16:10:00,
2013-01-11 10:25:00,42.6,42.0,29.71,SSW,200,1.0,4.0,98,0.01,,,0.14,weatherlink.com 1.10,2013-01-11 16:25:00,
2013-01-11 10:40:00,42.5,42.0,29.72,SSW,200,0.0,2.0,98,0.01,,,0.15,weatherlink.com 1.10,2013-01-11 16:40:00,
2013-01-11 10:55:00,42.0,42.0,29.72,SSW,198,0.0,5.0,98,0.01,,,0.15,weatherlink.com 1.10,2013-01-11 16:55:00,
2013-01-11 11:10:00,41.9,41.0,29.73,SW,214,1.0,4.0,98,0.01,,,0.15,weatherlink.com 1.10,2013-01-11 17:10:00,
2013-01-11 11:25:00,41.9,41.0,29.73,SW,227,2.0,5.0,98,0.01,,,0.15,weatherlink.com 1.10,2013-01-11 17:25:00,
2013-01-11 11:40:00,41.8,41.0,29.72,SW,223,0.0,3.0,98,0.00,,,0.15,weatherlink.com 1.10,2013-01-11 17:40:00,
2013-01-11 11:55:00,41.6,41.0,29.71,SSW,213,1.0,5.0,98,0.00,,,0.15,weatherlink.com 1.10,2013-01-11 17:55:00,
2013-01-11 12:10:00,41.5,41.0,29.71,SW,232,4.0,4.0,98,0.00,,,0.15,weatherlink.com 1.10,2013-01-11 18:10:00,
2013-01-11 12:26:00,41.2,41.0,29.72,SW,218,1.0,5.0,98,0.00,,,0.15,weatherlink.com 1.10,2013-01-11 18:26:00,
2013-01-11 12:41:00,41.1,41.0,29.72,SSW,213,2.0,5.0,98,0.00,,,0.15,weatherlink.com 1.10,2013-01-11 18:41:00,
2013-01-11 12:56:00,41.2,41.0,29.71,SSW,213,1.0,4.0,98,0.00,,,0.15,weatherlink.com 1.10,2013-01-11 18:56:00,
2013-01-11 13:11:00,41.6,41.0,29.72,SSW,205,1.0,3.0,98,0.00,,,0.15,weatherlink.com 1.10,2013-01-11 19:11:00,
2013-01-11 13:26:00,41.7,41.0,29.72,SSW,205,0.0,3.0,98,0.00,,,0.15,weatherlink.com 1.10,2013-01-11 19:26:00,
2013-01-11 13:41:00,42.1,42.0,29.72,SSW,205,0.0,3.0,98,0.00,,,0.15,weatherlink.com 1.10,2013-01-11 19:41:00,
2013-01-11 13:56:00,42.5,42.0,29.71,SSW,205,1.0,2.0,98,0.00,,,0.15,weatherlink.com 1.10,2013-01-11 19:56:00,
2013-01-11 14:11:00,42.8,42.0,29.72,SSW,204,0.0,3.0,98,0.00,,,0.15,weatherlink.com 1.10,2013-01-11 20:11:00,
2013-01-11 14:26:00,42.6,42.0,29.73,SSW,200,4.0,5.0,98,0.00,,,0.15,weatherlink.com 1.10,2013-01-11 20:26:00,
2013-01-11 14:41:00,42.7,42.0,29.72,SSW,202,2.0,4.0,98,0.00,,,0.15,weatherlink.com 1.10,2013-01-11 20:41:00,
2013-01-11 14:56:00,42.7,42.0,29.73,SSW,200,2.0,5.0,98,0.00,,,0.15,weatherlink.com 1.10,2013-01-11 20:56:00,
2013-01-11 15:11:00,43.1,43.0,29.71,SSW,200,1.0,4.0,98,0.00,,,0.15,weatherlink.com 1.10,2013-01-11 21:11:00,
2013-01-11 15:41:00,43.6,43.0,29.70,SSW,198,2.0,2.0,98,0.00,,,0.15,weatherlink.com 1.10,2013-01-11 21:41:00,
2013-01-11 15:56:00,43.7,43.0,29.70,SSW,198,0.0,4.0,98,0.00,,,0.15,weatherlink.com 1.10,2013-01-11 21:56:00,
2013-01-11 16:11:00,43.8,43.0,29.70,SSW,198,0.0,3.0,98,0.00,,,0.15,weatherlink.com 1.10,2013-01-11 22:11:00,
2013-01-11 16:26:00,44.2,44.0,29.70,SSW,197,1.0,4.0,98,0.00,,,0.15,weatherlink.com 1.10,2013-01-11 22:26:00,
2013-01-11 16:41:00,44.4,44.0,29.70,SSW,194,1.0,5.0,98,0.00,,,0.15,weatherlink.com 1.10,2013-01-11 22:41:00,
2013-01-11 16:56:00,44.6,44.0,29.69,SSW,194,3.0,6.0,98,0.00,,,0.15,weatherlink.com 1.10,2013-01-11 22:56:00,
2013-01-11 17:11:00,44.9,44.0,29.70,South,186,3.0,6.0,98,0.00,,,0.15,weatherlink.com 1.10,2013-01-11 23:11:00,
2013-01-11 17:26:00,45.1,45.0,29.70,SSW,201,4.0,7.0,98,0.00,,,0.15,weatherlink.com 1.10,2013-01-11 23:26:00,
2013-01-11 17:41:00,45.2,45.0,29.70,SSW,207,1.0,5.0,98,0.00,,,0.15,weatherlink.com 1.10,2013-01-11 23:41:00,
2013-01-11 17:56:00,45.4,45.0,29.71,SSW,198,2.0,7.0,98,0.00,,,0.15,weatherlink.com 1.10,2013-01-11 23:56:00,
2013-01-11 18:11:00,45.6,45.0,29.70,SSW,194,2.0,4.0,98,0.00,,,0.15,weatherlink.com 1.10,2013-01-12 00:11:00,
2013-01-11 18:26:00,46.0,45.0,29.70,SSW,194,1.0,5.0,97,0.00,,,0.15,weatherlink.com 1.10,2013-01-12 00:26:00,
2013-01-11 18:41:00,46.1,45.0,29.71,South,180,4.0,6.0,97,0.00,,,0.15,weatherlink.com 1.10,2013-01-12 00:41:00,
2013-01-11 18:56:00,46.6,46.0,29.69,South,182,5.0,6.0,97,0.00,,,0.15,weatherlink.com 1.10,2013-01-12 00:56:00,
2013-01-11 19:11:00,46.8,46.0,29.69,SSW,196,3.0,5.0,96,0.00,,,0.15,weatherlink.com 1.10,2013-01-12 01:11:00,
2013-01-11 19:26:00,47.3,46.0,29.69,South,188,2.0,7.0,96,0.00,,,0.15,weatherlink.com 1.10,2013-01-12 01:26:00,
2013-01-11 19:41:00,47.5,46.0,29.68,South,171,3.0,6.0,95,0.00,,,0.15,weatherlink.com 1.10,2013-01-12 01:41:00,
2013-01-11 19:56:00,47.9,47.0,29.68,SSW,192,4.0,7.0,95,0.00,,,0.15,weatherlink.com 1.10,2013-01-12 01:56:00,
2013-01-11 20:11:00,48.2,47.0,29.67,South,187,3.0,8.0,95,0.00,,,0.15,weatherlink.com 1.10,2013-01-12 02:11:00,
2013-01-11 20:26:00,48.5,47.0,29.68,SSW,204,2.0,6.0,94,0.00,,,0.15,weatherlink.com 1.10,2013-01-12 02:26:00,
2013-01-11 20:41:00,48.6,47.0,29.67,South,188,2.0,8.0,93,0.00,,,0.15,weatherlink.com 1.10,2013-01-12 02:41:00,
2013-01-11 20:56:00,48.6,47.0,29.66,SSW,208,2.0,8.0,93,0.00,,,0.15,weatherlink.com 1.10,2013-01-12 02:56:00,
2013-01-11 21:11:00,48.6,46.0,29.67,South,187,3.0,7.0,92,0.00,,,0.15,weatherlink.com 1.10,2013-01-12 03:11:00,
2013-01-11 21:26:00,48.9,47.0,29.67,SSW,194,4.0,10.0,92,0.00,,,0.15,weatherlink.com 1.10,2013-01-12 03:26:00,
2013-01-11 21:41:00,49.0,47.0,29.66,SW,221,1.0,7.0,91,0.00,,,0.15,weatherlink.com 1.10,2013-01-12 03:41:00,
2013-01-11 21:56:00,49.2,47.0,29.65,SSW,198,7.0,8.0,90,0.00,,,0.15,weatherlink.com 1.10,2013-01-12 03:56:00,
2013-01-11 22:11:00,49.3,47.0,29.64,SSW,197,2.0,7.0,90,0.00,,,0.15,weatherlink.com 1.10,2013-01-12 04:11:00,
2013-01-11 22:26:00,49.3,47.0,29.63,South,174,4.0,11.0,90,0.00,,,0.15,weatherlink.com 1.10,2013-01-12 04:26:00,
2013-01-11 22:41:00,49.5,46.0,29.64,South,173,2.0,7.0,89,0.00,,,0.15,weatherlink.com 1.10,2013-01-12 04:41:00,
2013-01-11 22:56:00,50.3,47.0,29.63,South,178,4.0,11.0,88,0.00,,,0.15,weatherlink.com 1.10,2013-01-12 04:56:00,
2013-01-11 23:11:00,50.3,47.0,29.64,South,186,4.0,8.0,87,0.00,,,0.15,weatherlink.com 1.10,2013-01-12 05:11:00,
2013-01-11 23:26:00,50.0,46.0,29.63,South,191,4.0,7.0,87,0.00,,,0.15,weatherlink.com 1.10,2013-01-12 05:26:00,
2013-01-11 23:41:00,50.2,46.0,29.64,South,188,7.0,10.0,86,0.00,,,0.15,weatherlink.com 1.10,2013-01-12 05:41:00,
2013-01-11 23:56:00,50.3,46.0,29.63,South,184,6.0,10.0,86,0.00,,,0.15,weatherlink.com 1.10,2013-01-12 05:56:00,